Regional Weather Roundup
Issued by NWS

Home | Current Version | Previous Version | Text Only | Print | Product List | Glossary Off
Versions: 1 2 3 4 5 6 7 8 9 10 11 12 13 14 15 16 17 18 19 20 21 22 23 24 25 26 27 28 29 30 31 32 33 34 35 36 37 38 39 40 41 42 43 44 45 46 47 48 49 50

000
ASUS43 KMKX 162300
RWRWI

WISCONSIN REGIONAL WEATHER ROUNDUP
NATIONAL WEATHER SERVICE MILWAUKEE/SULLIVAN WI
600 PM CDT TUE SEP 16 2014

NOTE: "FAIR" INDICATES FEW OR NO CLOUDS BELOW 12,000 FEET WITH NO
SIGNIFICANT WEATHER AND/OR OBSTRUCTIONS TO VISIBILITY.

WIZ001-002-006>008-014>016-023>028-170000-
NORTHWEST WISCONSIN

CITY           SKY/WX    TMP DP  RH WIND       PRES   REMARKS
SUPERIOR ARPT  SUNNY     67  44  42 SW10      29.99S
ASHLAND        SUNNY     65  46  50 SW10      30.00S
HAYWARD        SUNNY     64  40  41 SW7       30.04S
SIREN          SUNNY     65  41  41 SW8       30.04F
RICE LAKE      PTSUNNY   65  40  41 SW6       30.07F
LADYSMITH      MOSUNNY   64  43  45 SW6       30.07F
EAU CLAIRE     NOT AVBL
MENOMONIE      CLEAR     66  41  39 SW5       30.06S
NEW RICHMOND   SUNNY     65  40  40 SW8       30.06S
OSCEOLA        SUNNY     66  42  42 SW7       30.07F
$$

WIZ003>005-009-010-017-018-170000-
NORTH CENTRAL WISCONSIN

CITY           SKY/WX    TMP DP  RH WIND       PRES   REMARKS
WOODRUFF       MOSUNNY   63  39  41 W9        30.03F
RHINELANDER    SUNNY     62  42  47 W8        30.04F
EAGLE RIVER    SUNNY     63  37  37 W8        30.02S
LAND O LAKES   MOSUNNY   64  39  39 W9        30.02S
PHILLIPS       SUNNY     63  42  47 SW7       30.03F
TOMAHAWK       MOSUNNY   62  40  44 CALM      30.05F
MEDFORD        SUNNY     62  42  49 W7        30.06F
MERRILL        PTSUNNY   63  43  47 W9        30.05F
$$

WIZ029-030-035-036-043>047-170000-
CENTRAL WISCONSIN

CITY           SKY/WX    TMP DP  RH WIND       PRES   REMARKS
WAUSAU         SUNNY     63  43  48 W8        30.05F
MOSINEE        SUNNY     61  45  55 SW8       30.07F
MARSHFIELD     SUNNY     62  43  49 W7        30.07S
STEVENS POINT  SUNNY     62  41  46 SW9       30.07F
WAUPACA        SUNNY     66  43  43 SW6       30.08S
WAUTOMA        NOT AVBL
WISC RAPIDS    SUNNY     63  42  46 W5        30.09S
CAMP DOUGLAS   NOT AVBL
$$

WIZ011>013-019>022-031-037>040-048>050-170000-
NORTHEAST WISCONSIN

CITY           SKY/WX    TMP DP  RH WIND       PRES   REMARKS
ANTIGO         MOSUNNY   61  43  50 W12       30.05F
STURGEON BAY   CLEAR     63  45  51 SW12      30.04F
GREEN BAY      SUNNY     63  46  54 W7        30.06F
MANITOWOC      NOT AVBL
APPLETON       MOSUNNY   63  43  48 SW7       30.08F
CLINTONVILLE   SUNNY     64  41  42 W7        30.06S
OSHKOSH        SUNNY     62  44  51 SW6       30.07F
$$

WIZ032>034-041-042-053>061-170000-
SOUTHWEST WISCONSIN

CITY           SKY/WX    TMP DP  RH WIND       PRES   REMARKS
LA CROSSE      SUNNY     67  44  43 SW3       30.07F
SPARTA         SUNNY     64  41  43 W3        30.09F
VIROQUA        FAIR      63  42  47 W5        30.09F
BOSCOBEL       SUNNY     66  44  45 W6        30.09F
PRAIRIE DU CHI SUNNY     65  40  39 CALM      30.08F
PLATTEVILLE    FAIR      63  45  51 CALM      30.11S
$$

WIZ056-057-062-063-064-067-068-170000-
SOUTH CENTRAL WISCONSIN

CITY           SKY/WX    TMP DP  RH WIND       PRES   REMARKS
BARABOO/DELLS  SUNNY     63  40  41 W5        30.09S
LONE ROCK      NOT AVBL
WATERTOWN      SUNNY     62  42  47 W5        30.09F
MADISON        MOSUNNY   63  43  48 NW3       30.09F
MIDDLETON      FAIR      64  42  45 CALM      30.10S
MONROE         SUNNY     63  41  45 NW8       30.10S
JANESVILLE     SUNNY     64  41  42 W6        30.09F
$$

WIZ051-052-058>065-066-070>072-170000-
SOUTHEAST WISCONSIN

CITY           SKY/WX    TMP DP  RH WIND       PRES   REMARKS
MILWAUKEE      MOSUNNY   59  42  53 SE10      30.10S
WAUKESHA       SUNNY     61  39  44 W7        30.11F
MILWAUKEE/TIMM NOT AVBL
RACINE         SUNNY     59  43  55 SE8       30.12F
BURLINGTON     SUNNY     62  40  45 W5        30.10F
KENOSHA        SUNNY     60  46  59 E6        30.11S
FOND DU LAC    SUNNY     62  41  46 W5        30.09S
SHEBOYGAN      CLEAR     62  41  46 W8        30.09S
WEST BEND      SUNNY     61  37  41 W6        30.09S
JUNEAU         SUNNY     61  42  50 SW5       30.10F
$$

LSZ147-162-170000-
LAKE SUPERIOR

STATION/POSITION TIME  TEMP    WIND        PRES    WAVE
                       AIR SEA DIR/SP/G            HT/PER
                 (UTC) (F)     (DEG/KT/KT) (MB)    (FT/S)
W MID LAKE BUOY  2150   53 46  250/ 12/ 14 1014.3F   4/ 6
DEVILS ISLAND    2200   61     240/ 20/ 22 1014.4F
PORT WING        2240   68     230/  8/ 13 1015.2F
SAXON HARBOR     2200   69     230/  8/ 15 1015.9
$$

LMZ867-665-643>646-170000-
LAKE MICHIGAN

STATION/POSITION TIME  TEMP    WIND        PRES    WAVE
                       AIR SEA DIR/SP/G            HT/PER
                 (UTC) (F)     (DEG/KT/KT) (MB)    (FT/S)
N MID LAKE BUOY  2050   57 58  210/ 19/ 23 1016.9F   3/ 4
NORTHPORT PIER   2200   65     220/  4/ 12 1016.3F
KEWAUNEE LAKESHO 2200   63     250/  8/ 14 1017.1F
SHEBOYGAN LAKESH 2200   60 48  170/ 11/ 13 1019.1F
PORT WASHINGTON  2200   61     170/  8/ 10 1019.6F
ATWATER BUOY     2200   60     150/ 10/ 12 1020.3F
MILWAUKEE LAKESH 2200   58     140/  9/ 10   N/A
S MID LAKE BUOY  2150   58 65   40/  4/  6 1020.3F   1/ 5
KENOSHA   LAKESH 2200   63     140/  7/  8 1019.3F
$$

TC  - TEMPERATURE IN CELSIUS
VSB - VISIBILITY IN STATUTE MILES
WCI - WIND CHILL INDEX
HX  - HEAT INDEX




USA.gov is the U.S. government's official web portal to all federal, state and local government web resources and services.